Regional Weather Roundup
Issued by NWS

Home | Current Version | Previous Version | Text Only | Print | Product List | Glossary Off
Versions: 1 2 3 4 5 6 7 8 9 10 11 12 13 14 15 16 17 18 19 20 21 22 23 24 25 26 27 28 29 30 31 32 33 34 35 36 37 38 39 40 41 42 43 44 45 46 47 48 49 50

000
ASUS43 KDMX 240501
RWRIA

WEATHER ROUNDUP FOR IOWA
NATIONAL WEATHER SERVICE DES MOINES IA
1200 AM CDT FRI MAR 24 2017

NOTE: "FAIR" INDICATES FEW OR NO CLOUDS BELOW 12,000 FEET WITH NO
SIGNIFICANT WEATHER AND/OR OBSTRUCTIONS TO VISIBILITY.

* - THESE STATIONS ARE NOT NWS STATIONS...THUS NOT UNDER NWS
QUALITY CONTROL.  THEY ALSO DO NOT REPORT WEATHER SUCH
AS PRECIPITATION OR FOG.

IAZ001>003-012>014-020>022-031>034-043>046-240600-
   NORTHWEST IOWA

CITY           SKY/WX    TMP DP  RH WIND       PRES   REMARKS
CARROLL *      CLOUDY    63  52  67 S29G36    29.63F
CHEROKEE *     CLOUDY    46  39  78 E5        29.67F
LE MARS *      LGT RAIN  48  43  81 NE9G15    29.75R
ORANGE CITY *  RAIN      46  41  81 NE5       29.74R
SHELDON *      LGT RAIN  43  43 100 NW7G13    29.73R
SIOUX CITY     CLOUDY    56  46  69 NW25G33   29.72R
SPENCER        CLOUDY    44  38  79 E10       29.71F
STORM LAKE *   CLOUDY    45  39  81 E10       29.69F
$$

IAZ055>058-069>071-079>083-090>094-240600-
   SOUTHWEST IOWA

CITY           SKY/WX    TMP DP  RH WIND       PRES   REMARKS
ATLANTIC *     MOCLDY    68  48  49 S15G23    29.71R
AUDUBON *      CLOUDY    66  50  55 S18G25    29.71F
CLARINDA *       N/A     70  46  43 S17G23    29.75S
COUNCIL BLFS * CLOUDY    70  50  49 S29G39    29.63F
CRESTON *      PTCLDY    63  48  59 S16       29.76F
HARLAN  *      CLOUDY    68  48  49 S24G43    29.66F
LAMONI         CLOUDY    66  47  50 S14       29.78R
RED OAK *      CLOUDY    70  48  46 S21       29.71S
SHENANDOAH *   CLOUDY    70  46  43 S20       29.72S
$$

IAZ047>049-059>061-072>074-084-240600-
   CENTRAL IOWA

CITY           SKY/WX    TMP DP  RH WIND       PRES   REMARKS
AMES           CLOUDY    49  40  71 SE10      29.77S
ANKENY *       CLOUDY    52  39  62 SE9       29.77F
BOONE *        CLOUDY    48  39  71 SE15      29.73S
CHARITON *     CLOUDY    55  43  62 S7        29.80R
DES MOINES     CLOUDY    55  40  56 SE13      29.76F
GRINNELL*      CLOUDY    47  39  73 SE12      29.82R
MARSHALLTOWN   CLOUDY    45  39  79 SE15      29.78F
NEWTON *       CLOUDY    46  39  76 SE12      29.79F
PELLA *        CLOUDY    47  39  75 SE6       29.83R
PERRY *          N/A     51  38  62 SE9       29.74S
$$

IAZ004>006-015-016-023>025-035-036-240600-
   NORTH CENTRAL IOWA

CITY           SKY/WX    TMP DP  RH WIND       PRES   REMARKS
ALGONA *       CLOUDY    41  39  93 SE14      29.75S
CLARION *      CLOUDY    43  41  93 E10G16    29.76F
ESTHERVILLE    CLOUDY    40  38  93 SE14      29.73F WCI  32
FORT DODGE *   CLOUDY    46  37  71 N9        29.72F
MASON CITY     CLOUDY    40  36  86 SE15      29.79F WCI  32
FOREST CITY *  MOCLDY    39  37  93 SE14G20   29.78F WCI  31
WEBSTER CITY * CLOUDY    48  39  71 SE16      29.70F
IOWA FALLS *     N/A     46  39  76 SE20      29.74F
$$

IAZ007>011-017>019-026>030-037>042-050>054-066-240600-
   NORTHEAST IOWA

CITY           SKY/WX    TMP DP  RH WIND       PRES   REMARKS
CEDAR RAPIDS   MOCLDY    42  40  92 SE10      29.83F
CHARLES CITY *   N/A     41  39  93 SE9G20    29.83S
CLINTON *      PTCLDY    42  37  82 SE13      29.90F
DECORAH *      CLOUDY    39  36  87 SE7       29.85S WCI  34
DUBUQUE        CLOUDY    40  33  76 SE9       29.89F WCI  34
MONTICELLO *   MOCLDY    41  37  87 SE12      29.87F
WATERLOO       MOCLDY    42  37  82 SE16      29.80S
$$

IAZ064-065-067-068-078-240600-
   EAST CENTRAL IOWA

CITY           SKY/WX    TMP DP  RH WIND       PRES   REMARKS
DAVENPORT      PTCLDY    42  37  82 SE10      29.90F
IOWA CITY      MOCLDY    44  39  82 SE9       29.87F
MUSCATINE *    CLOUDY    45  41  87 SE7       29.89F
QUAD CITIES    PTCLDY    45  38  76 SE8       29.90F
$$

IAZ062-063-075>077-085>089-095>099-240600-
   SOUTHEAST IOWA

CITY           SKY/WX    TMP DP  RH WIND       PRES   REMARKS
BURLINGTON     CLOUDY    51  43  74 S14       29.87F
FAIRFIELD *    CLOUDY    50  41  71 S10       29.83F
FORT MADISON * PTCLDY    52  43  71 S15G21    29.88F
KEOKUK *       PTCLDY    55  43  62 S9G17     29.87F
OSKALOOSA *      N/A     46  39  76 SE9       29.82S
CENTERVILLE *    N/A     55  45  67 SE13      29.82F
OTTUMWA        PTCLDY    54  42  64 S15       29.81F
WASHINGTON *   PTCLDY    43  41  93 SE8       29.86F
$$

ABBREVIATIONS USED IN REMARKS
   TC - TEMPERATURES IN CELSIUS
  WCI - WIND CHILL INDEX
   HX - HEAT INDEX
  VSB - VISIBILITY
$$





USA.gov is the U.S. government's official web portal to all federal, state and local government web resources and services.